DW6648 Broadstone UK current weather conditions

sailwx.info

Wind from 050 at 5 knots gusting 8

Air temperature 13.9° C
Dewpoint 10.9° C

Last reported at 2019-Sep-17 04:03 UTC.
Time now 2019-Sep-17 04:23 UTC

Location: N 50°45' W 001°60'.
View on Google Maps.

See reports from other nearby stations

  
Tides and Currents Weather Stations Pressure Air Temp Water Temp Dewpoint Dewpoint Depression Visibility Wind Speed Wind Dir Waves Ship Positions
date/time (UTC)wind fromknots sea level pressurealtimeterstation pressurevisibilityair tempwater tempwave heightnotes
2019-Sep-17 04:08 026 4 gusting 8 13.9
2019-Sep-17 04:03 050 5 gusting 8 13.9
2019-Sep-17 03:58 038 5 gusting 7 13.9
2019-Sep-17 03:43 003 2 gusting 6 13.9
2019-Sep-17 03:38 017 3 gusting 6 13.9
2019-Sep-17 03:33 030 2 gusting 6 14.4
2019-Sep-17 03:28 015 3 gusting 6 14.4
2019-Sep-17 03:23 003 1 gusting 6 14.4
2019-Sep-17 03:18 015 2 gusting 6 14.4
2019-Sep-17 03:13 010 2 gusting 6 14.4
2019-Sep-17 03:08 022 2 gusting 5 14.4
2019-Sep-17 02:58 027 2 gusting 7 14.4
2019-Sep-17 02:48 032 4 gusting 7 15.0
2019-Sep-17 02:38 044 4 gusting 10 15.0
2019-Sep-17 02:28 032 4 gusting 6 15.0
2019-Sep-17 02:18 026 2 gusting 8 15.0
2019-Sep-17 02:13 027 5 gusting 8 15.0
2019-Sep-17 01:53 022 2 gusting 6 15.6
2019-Sep-17 01:48 036 3 gusting 10 15.6
2019-Sep-17 01:43 037 4 gusting 10 15.6
2019-Sep-17 01:33 017 4 gusting 8 15.6
2019-Sep-17 01:28 027 2 gusting 5 15.6
2019-Sep-17 01:23 020 2 gusting 6 15.6
2019-Sep-17 01:18 023 4 gusting 6 15.6
2019-Sep-17 01:13 026 2 gusting 6 15.6
2019-Sep-17 01:08 019 3 gusting 6 15.6
2019-Sep-17 00:53 019 1 gusting 2 15.6
2019-Sep-17 00:48 028 1 gusting 2 15.6
2019-Sep-17 00:43 037 1 gusting 2 16.1
2019-Sep-17 00:38 033 1 gusting 2 16.1
2019-Sep-17 00:33 032 1 gusting 2 16.1
2019-Sep-17 00:28 038 0 gusting 1 16.1
2019-Sep-17 00:23 065 0 gusting 2 16.1
2019-Sep-17 00:08 035 0 gusting 4 16.1
2019-Sep-16 23:58 055 0 gusting 2 16.1
2019-Sep-16 23:53 046 1 gusting 2 16.1
2019-Sep-16 23:48 051 1 gusting 2 16.1
2019-Sep-16 23:43 072 1 gusting 2 16.1
2019-Sep-16 23:38 061 16.1
2019-Sep-16 23:33 026 16.1
2019-Sep-16 23:28 064 1 gusting 2 16.1
2019-Sep-16 23:23 084 1 gusting 4 16.1
2019-Sep-16 23:18 043 0 gusting 6 16.1
2019-Sep-16 22:58 069 1 gusting 6 16.7
2019-Sep-16 22:48 067 4 gusting 6 16.7
2019-Sep-16 22:43 053 2 gusting 10 16.7
2019-Sep-16 22:38 041 2 gusting 10 16.7
2019-Sep-16 22:33 042 4 gusting 10 16.7
2019-Sep-16 22:28 055 4 gusting 8 17.2
2019-Sep-16 22:23 054 4 gusting 8 17.2
2019-Sep-16 22:18 036 2 gusting 8 17.2
2019-Sep-16 22:13 042 5 gusting 10 17.2
2019-Sep-16 22:03 050 4 gusting 10 17.2
2019-Sep-16 21:58 016 1 gusting 6 17.8
2019-Sep-16 21:48 026 4 gusting 6 17.8
2019-Sep-16 21:43 017 2 gusting 5 17.8
2019-Sep-16 21:38 016 2 gusting 4 17.8
2019-Sep-16 21:28 040 1 gusting 2 17.8
2019-Sep-16 21:23 036 0 gusting 4 17.8
2019-Sep-16 21:18 046 1 gusting 4 17.8
2019-Sep-16 21:13 034 1 gusting 4 17.8
2019-Sep-16 20:58 354 17.8
2019-Sep-16 20:48 028 1 gusting 2 18.3
2019-Sep-16 20:43 029 1 gusting 2 18.3
2019-Sep-16 20:38 030 1 gusting 2 18.3
2019-Sep-16 20:33 359 0 gusting 2 18.3
2019-Sep-16 20:23 022 1 gusting 4 18.3
2019-Sep-16 20:18 023 1 gusting 4 18.3
2019-Sep-16 20:13 008 0 gusting 2 18.3
2019-Sep-16 20:08 014 18.3
2019-Sep-16 20:03 058 1 gusting 4 18.9
2019-Sep-16 19:53 009 1 gusting 2 18.9
2019-Sep-16 19:48 031 0 gusting 2 18.9
2019-Sep-16 19:43 326 0 gusting 1 18.9
2019-Sep-16 19:38 336 18.9
2019-Sep-16 19:28 336 0 gusting 2 18.9
2019-Sep-16 19:23 336 0 gusting 2 18.9
2019-Sep-16 19:18 346 1 gusting 2 19.4
2019-Sep-16 19:13 336 0 gusting 2 19.4
2019-Sep-16 19:08 336 0 gusting 1 19.4
2019-Sep-16 19:03 344 0 gusting 1 19.4
2019-Sep-16 18:58 335 0 gusting 2 19.4
2019-Sep-16 18:53 331 1 gusting 2 19.4
2019-Sep-16 18:48 331 1 gusting 5 19.4
2019-Sep-16 18:33 319 2 gusting 4 19.4
2019-Sep-16 18:28 327 1 gusting 4 19.4
2019-Sep-16 18:23 326 1 gusting 2 20.0
2019-Sep-16 18:18 338 1 gusting 4 20.0
2019-Sep-16 18:13 335 0 gusting 4 20.0
2019-Sep-16 18:03 325 1 gusting 4 20.0
2019-Sep-16 17:53 321 2 gusting 6 20.0
2019-Sep-16 17:48 329 2 gusting 7 20.0
2019-Sep-16 17:43 321 3 gusting 7 20.0
2019-Sep-16 17:33 305 3 gusting 6 20.6
2019-Sep-16 17:28 314 2 gusting 6 20.6
2019-Sep-16 17:23 309 2 gusting 6 20.6
2019-Sep-16 17:13 340 2 gusting 5 20.6
2019-Sep-16 17:08 316 2 gusting 5 20.6
2019-Sep-16 17:03 319 2 gusting 8 20.6
2019-Sep-16 16:58 338 3 gusting 8 20.6
2019-Sep-16 16:48 305 4 gusting 6 20.6
2019-Sep-16 16:38 311 3 gusting 5 20.6
2019-Sep-16 16:33 297 1 gusting 5 20.6
2019-Sep-16 16:28 310 1 gusting 5 20.6
2019-Sep-16 16:03 297 2 gusting 6 20.6
2019-Sep-16 15:58 307 3 gusting 7 20.6
2019-Sep-16 15:53 299 3 gusting 7 20.6
2019-Sep-16 15:48 303 3 gusting 7 20.6
2019-Sep-16 15:38 323 3 gusting 8 20.6
2019-Sep-16 15:28 322 4 gusting 7 20.6
2019-Sep-16 15:23 331 3 gusting 5 20.6
2019-Sep-16 15:18 304 2 gusting 4 20.6
2019-Sep-16 15:08 319 2 gusting 6 20.6
2019-Sep-16 14:58 311 0 gusting 6 20.6
2019-Sep-16 14:53 333 3 gusting 6 20.6
2019-Sep-16 14:48 298 3 gusting 6 20.6
2019-Sep-16 14:43 309 2 gusting 6 20.6
2019-Sep-16 14:38 336 2 gusting 2 20.6
2019-Sep-16 14:33 303 1 gusting 2 20.6
2019-Sep-16 14:28 317 1 gusting 5 20.6
2019-Sep-16 14:18 305 2 gusting 5 20.0
2019-Sep-16 14:13 314 1 gusting 2 20.0
2019-Sep-16 14:08 314 1 gusting 4 20.0
2019-Sep-16 14:03 312 1 gusting 5 20.0
2019-Sep-16 13:58 305 2 gusting 5 20.0
2019-Sep-16 13:53 321 2 gusting 5 20.0
2019-Sep-16 13:48 309 1 gusting 5 20.0
2019-Sep-16 13:38 313 1 gusting 7 20.0
2019-Sep-16 13:33 335 4 gusting 7 20.0
2019-Sep-16 13:28 320 2 gusting 8 20.0
2019-Sep-16 13:23 321 5 gusting 8 20.0
2019-Sep-16 13:13 325 2 gusting 7 20.0
2019-Sep-16 13:03 310 5 gusting 8 20.0
2019-Sep-16 12:58 311 2 gusting 8 20.0
2019-Sep-16 12:53 318 2 gusting 8 20.0
2019-Sep-16 12:48 310 1 gusting 6 20.0
2019-Sep-16 12:38 302 4 gusting 7 20.0
2019-Sep-16 12:13 333 3 gusting 5 19.4
2019-Sep-16 12:08 315 2 gusting 6 19.4
2019-Sep-16 11:58 331 3 gusting 6 19.4
2019-Sep-16 11:53 325 3 gusting 6 19.4
2019-Sep-16 11:48 342 2 gusting 6 19.4
2019-Sep-16 11:43 321 2 gusting 7 19.4
2019-Sep-16 11:38 325 2 gusting 7 19.4
2019-Sep-16 11:33 317 4 gusting 7 19.4
2019-Sep-16 11:28 321 3 gusting 7 19.4
2019-Sep-16 11:18 323 2 gusting 8 19.4
2019-Sep-16 11:13 319 4 gusting 8 19.4
2019-Sep-16 11:08 331 3 gusting 6 19.4
2019-Sep-16 11:03 306 2 gusting 6 19.4
2019-Sep-16 10:58 328 2 gusting 6 19.4
2019-Sep-16 10:53 319 3 gusting 6 19.4
2019-Sep-16 10:48 330 4 gusting 6 19.4
2019-Sep-16 10:43 318 3 gusting 6 18.9
2019-Sep-16 10:38 309 2 gusting 6 18.9
2019-Sep-16 10:33 311 3 gusting 6 18.9
2019-Sep-16 10:28 309 4 gusting 6 18.9
2019-Sep-16 10:23 304 1 gusting 6 18.9
2019-Sep-16 10:08 346 2 gusting 6 18.3
2019-Sep-16 10:03 319 3 gusting 6 18.3
2019-Sep-16 09:53 328 3 gusting 7 18.3
2019-Sep-16 09:48 308 4 gusting 8 18.3
2019-Sep-16 09:38 313 4 gusting 7 18.3
2019-Sep-16 09:28 319 3 gusting 6 18.3
2019-Sep-16 09:13 308 2 gusting 6 18.3
2019-Sep-16 09:08 293 4 gusting 6 18.3
2019-Sep-16 09:03 309 2 gusting 5 17.8
2019-Sep-16 08:58 252 2 gusting 5 17.8
2019-Sep-16 08:53 303 2 gusting 6 17.8
2019-Sep-16 08:48 306 2 gusting 6 17.8
2019-Sep-16 08:43 301 2 gusting 5 17.2
2019-Sep-16 08:38 316 2 gusting 5 17.2
2019-Sep-16 08:33 305 2 gusting 5 17.2
2019-Sep-16 08:23 307 2 gusting 4 16.7
2019-Sep-16 08:18 291 1 gusting 4 16.7
2019-Sep-16 08:13 297 1 gusting 4 16.7
2019-Sep-16 08:03 293 2 gusting 6 16.1
2019-Sep-16 07:58 285 2 gusting 6 16.1
2019-Sep-16 07:43 306 2 gusting 6 16.1
2019-Sep-16 07:23 327 4 gusting 8 15.6
2019-Sep-16 07:13 309 2 gusting 6 15.6
2019-Sep-16 07:08 328 2 gusting 6 15.6
2019-Sep-16 07:03 335 3 gusting 6 15.6
2019-Sep-16 06:58 329 1 gusting 4 15.6
2019-Sep-16 06:53 330 1 gusting 2 15.6
2019-Sep-16 06:48 300 0 gusting 2 15.6
2019-Sep-16 06:43 291 0 gusting 2 15.6
2019-Sep-16 06:38 312 1 gusting 6 15.6
2019-Sep-16 06:33 311 0 gusting 6 15.6
2019-Sep-16 06:28 307 1 gusting 7 15.0
2019-Sep-16 06:23 309 2 gusting 7 15.0
2019-Sep-16 06:18 310 1 gusting 7 15.0
2019-Sep-16 06:13 319 1 gusting 4 15.0
2019-Sep-16 06:08 317 1 gusting 2 15.0
2019-Sep-16 06:03 324 1 gusting 4 15.0
2019-Sep-16 05:58 301 1 gusting 6 15.0
2019-Sep-16 05:48 316 2 gusting 6 15.0
2019-Sep-16 05:43 317 0 gusting 4 15.0
2019-Sep-16 05:38 327 2 gusting 4 15.0
2019-Sep-16 05:33 311 0 gusting 4 15.0
2019-Sep-16 05:28 314 2 gusting 5 15.0
2019-Sep-16 05:18 318 2 gusting 6 15.0
2019-Sep-16 05:13 330 2 gusting 7 15.6
2019-Sep-16 05:08 311 4 gusting 7 15.6
2019-Sep-16 05:03 318 2 gusting 5 15.6
2019-Sep-16 04:58 322 2 gusting 6 15.0
2019-Sep-16 04:48 319 2 gusting 6 15.0
2019-Sep-16 04:43 317 2 gusting 6 15.0
2019-Sep-16 04:38 319 3 gusting 6 15.0
2019-Sep-16 04:28 311 1 gusting 7 15.6
2019-Sep-16 04:23 313 4 gusting 7 15.6
2019-Sep-16 04:18 305 4 gusting 7 15.6
2019-Sep-16 04:08 311 4 gusting 7 15.6
2019-Sep-16 04:03 328 5 gusting 7 15.6
2019-Sep-16 03:58 333 4 gusting 7 15.6
2019-Sep-16 03:48 319 4 gusting 8 15.6
2019-Sep-16 03:38 309 4 gusting 10 15.6
2019-Sep-16 03:28 308 4 gusting 6 15.6
2019-Sep-16 03:23 325 2 gusting 6 15.6
2019-Sep-16 03:03 325 2 gusting 6 15.6
2019-Sep-16 02:58 325 3 gusting 8 15.6
2019-Sep-16 02:43 328 4 gusting 7 15.6
2019-Sep-16 02:28 310 4 gusting 10 15.6
2019-Sep-16 02:23 325 6 gusting 10 15.6
2019-Sep-16 02:13 318 2 gusting 10 15.6
2019-Sep-16 02:03 333 2 gusting 10 15.6
2019-Sep-16 01:58 325 5 gusting 10 15.6
2019-Sep-16 01:53 331 3 gusting 8 15.6
2019-Sep-16 01:38 332 2 gusting 8 15.6
2019-Sep-16 01:33 322 2 gusting 8 15.6
2019-Sep-16 01:23 321 4 gusting 7 15.6
2019-Sep-16 01:18 312 3 gusting 6 15.6
2019-Sep-16 01:08 318 4 gusting 7 15.0
2019-Sep-16 01:03 307 4 gusting 10 15.0
2019-Sep-16 00:58 329 4 gusting 10 15.0
2019-Sep-16 00:53 320 6 gusting 10 15.0
2019-Sep-16 00:43 309 2 gusting 10 14.4
2019-Sep-16 00:38 316 5 gusting 10 14.4
2019-Sep-16 00:33 315 4 gusting 6 14.4
2019-Sep-16 00:28 308 3 gusting 5 14.4
2019-Sep-16 00:18 299 1 gusting 6 14.4
2019-Sep-16 00:13 316 2 gusting 5 14.4
2019-Sep-16 00:08 318 2 gusting 4 14.4
2019-Sep-16 00:03 320 1 gusting 4 14.4
2019-Sep-15 23:58 314 2 gusting 4 14.4
2019-Sep-15 23:53 311 0 gusting 2 14.4
2019-Sep-15 23:48 317 15.0
2019-Sep-15 23:43 316 15.0
2019-Sep-15 23:38 320 15.0
2019-Sep-15 23:23 321 0 gusting 1 15.0
2019-Sep-15 23:18 320 15.0
2019-Sep-15 23:13 316 0 gusting 2 15.0
2019-Sep-15 23:09 310 0 gusting 2 15.0
2019-Sep-15 23:03 313 0 gusting 1 15.0
2019-Sep-15 22:58 308 0 gusting 2 15.0
2019-Sep-15 22:53 311 0 gusting 2 15.0
2019-Sep-15 22:43 318 0 gusting 2 15.6
2019-Sep-15 22:38 307 1 gusting 2 15.6
2019-Sep-15 22:33 308 0 gusting 2 15.6
2019-Sep-15 22:28 301 0 gusting 2 15.6
2019-Sep-15 22:23 314 1 gusting 2 15.6
2019-Sep-15 22:18 316 1 gusting 2 15.6
2019-Sep-15 22:13 320 1 gusting 2 15.6
2019-Sep-15 22:03 313 1 gusting 2 15.6
2019-Sep-15 21:53 299 2 gusting 5 15.6
2019-Sep-15 21:38 316 2 gusting 5 16.1
2019-Sep-15 21:33 315 2 gusting 6 16.1
2019-Sep-15 21:28 316 3 gusting 6 16.1
2019-Sep-15 21:23 317 2 gusting 6 16.1
2019-Sep-15 21:18 312 3 gusting 6 16.1
2019-Sep-15 21:13 309 4 gusting 8 16.1
2019-Sep-15 21:08 321 5 gusting 8 16.1
2019-Sep-15 20:58 318 3 gusting 7 16.7
2019-Sep-15 20:53 322 5 gusting 7 16.7
2019-Sep-15 20:48 318 2 gusting 6 16.7
2019-Sep-15 20:43 318 2 gusting 6 17.2
2019-Sep-15 20:38 315 3 gusting 6 17.2
2019-Sep-15 20:33 309 2 gusting 6 17.2
2019-Sep-15 20:28 317 4 gusting 6 17.2
2019-Sep-15 20:23 310 2 gusting 5 17.8
2019-Sep-15 20:18 312 2 gusting 6 17.8
2019-Sep-15 20:08 311 2 gusting 6 17.8
2019-Sep-15 20:03 316 2 gusting 5 17.8
2019-Sep-15 19:58 310 2 gusting 5 18.3
2019-Sep-15 19:53 314 2 gusting 5 18.3
2019-Sep-15 19:48 306 1 gusting 5 18.3
2019-Sep-15 19:43 312 1 gusting 5 18.3
2019-Sep-15 19:38 311 1 gusting 4 18.3
2019-Sep-15 19:33 303 2 gusting 6 18.9
2019-Sep-15 19:23 302 4 gusting 6 18.9
2019-Sep-15 19:08 297 1 gusting 4 19.4
2019-Sep-15 19:03 307 2 gusting 2 19.4
2019-Sep-15 18:58 311 0 gusting 2 20.0
2019-Sep-15 18:53 317 1 gusting 2 20.0
2019-Sep-15 18:48 284 0 gusting 2 20.0
2019-Sep-15 18:43 284 0 gusting 2 20.0
2019-Sep-15 18:38 283 1 gusting 4 20.6
2019-Sep-15 18:33 292 1 gusting 4 20.6
2019-Sep-15 18:28 304 1 gusting 2 21.1
2019-Sep-15 18:23 305 1 gusting 2 21.1
2019-Sep-15 18:18 319 1 gusting 4 21.1
2019-Sep-15 18:13 316 2 gusting 4 21.1
2019-Sep-15 18:08 312 1 gusting 4 21.7
2019-Sep-15 18:03 324 2 gusting 5 21.7
2019-Sep-15 17:53 310 0 gusting 2 22.2
2019-Sep-15 17:48 303 1 gusting 4 22.2
2019-Sep-15 17:43 343 1 gusting 4 22.2
2019-Sep-15 17:38 292 1 gusting 4 22.8
2019-Sep-15 17:33 319 1 gusting 2 22.8
2019-Sep-15 17:28 316 1 gusting 2 23.3
2019-Sep-15 17:23 316 1 gusting 2 23.3
2019-Sep-15 17:18 315 2 gusting 6 23.3
2019-Sep-15 17:08 349 2 gusting 7 23.3
2019-Sep-15 17:03 323 3 gusting 7 23.9
2019-Sep-15 16:58 313 4 gusting 6 23.9
2019-Sep-15 16:48 325 4 gusting 7 24.4
2019-Sep-15 16:43 327 2 gusting 7 24.4
2019-Sep-15 16:38 320 4 gusting 7 24.4
2019-Sep-15 16:33 320 4 gusting 7 24.4
2019-Sep-15 16:28 323 2 gusting 8 25.0
2019-Sep-15 16:18 015 4 gusting 6 25.0
2019-Sep-15 16:13 327 2 gusting 6 25.0
2019-Sep-15 16:03 323 4 gusting 6 25.6
2019-Sep-15 15:53 319 4 gusting 6 25.6
2019-Sep-15 15:48 306 4 gusting 6 25.6
2019-Sep-15 15:43 303 3 gusting 6 25.6
2019-Sep-15 15:33 312 3 gusting 6 25.0
2019-Sep-15 15:28 325 2 gusting 6 25.0
2019-Sep-15 15:23 308 5 gusting 6 25.0
2019-Sep-15 15:18 310 2 gusting 6 25.0
2019-Sep-15 15:08 277 1 gusting 6 25.6
2019-Sep-15 15:03 313 1 gusting 6 25.6
2019-Sep-15 14:53 315 4 gusting 7 25.6
2019-Sep-15 14:43 296 1 gusting 6 25.0
2019-Sep-15 14:38 255 3 gusting 6 25.0
2019-Sep-15 14:33 221 4 gusting 6 25.0
2019-Sep-15 14:23 295 3 gusting 6 25.6
2019-Sep-15 14:18 318 2 gusting 6 25.0
2019-Sep-15 14:03 299 2 gusting 7 25.0
2019-Sep-15 13:58 307 2 gusting 6 25.0
2019-Sep-15 13:53 345 2 gusting 6 25.0
2019-Sep-15 13:48 331 4 gusting 7 25.0
2019-Sep-15 13:43 321 5 gusting 7 25.0
2019-Sep-15 13:38 313 2 gusting 7 25.0
2019-Sep-15 13:28 315 4 gusting 6 24.4
2019-Sep-15 13:13 317 3 gusting 6 24.4
2019-Sep-15 13:08 263 2 gusting 6 24.4
2019-Sep-15 13:03 314 4 gusting 6 23.9
2019-Sep-15 12:58 306 4 gusting 6 23.9
2019-Sep-15 12:53 322 2 gusting 6 23.9
2019-Sep-15 12:48 323 2 gusting 6 23.9
2019-Sep-15 12:43 329 3 gusting 6 23.9
2019-Sep-15 12:38 302 1 gusting 6 23.9
2019-Sep-15 12:33 034 2 gusting 6 23.9
2019-Sep-15 12:28 320 3 gusting 6 23.9
2019-Sep-15 12:18 306 0 gusting 6 23.3
2019-Sep-15 12:13 334 2 gusting 6 23.3
2019-Sep-15 12:08 325 3 gusting 6 22.8
2019-Sep-15 11:58 306 1 gusting 6 22.8
2019-Sep-15 11:53 297 1 gusting 6 22.2
2019-Sep-15 11:48 313 4 gusting 6 22.2
2019-Sep-15 11:43 314 3 gusting 6 21.7
2019-Sep-15 11:38 332 4 gusting 7 21.7
2019-Sep-15 11:28 323 3 gusting 7 21.1
2019-Sep-15 11:23 312 4 gusting 6 20.6
2019-Sep-15 11:18 349 2 gusting 6 20.6
2019-Sep-15 11:13 324 4 gusting 7 20.6
2019-Sep-15 11:08 322 4 gusting 7 20.0
2019-Sep-15 10:58 323 3 gusting 6 19.4
2019-Sep-15 10:53 310 2 gusting 6 19.4
2019-Sep-15 10:48 309 2 gusting 6 18.9
2019-Sep-15 10:38 321 1 gusting 6 18.3
2019-Sep-15 10:33 333 2 gusting 6 18.3
2019-Sep-15 10:28 318 3 gusting 7 18.3
2019-Sep-15 10:18 316 4 gusting 7 17.8
2019-Sep-15 10:13 307 3 gusting 8 17.8
2019-Sep-15 10:08 311 4 gusting 10 17.2
2019-Sep-15 10:03 316 5 gusting 10 17.2
2019-Sep-15 09:53 343 5 gusting 11 17.2
2019-Sep-15 09:48 330 6 gusting 11 16.7
2019-Sep-15 09:43 330 6 gusting 10 16.7
2019-Sep-15 09:28 328 5 gusting 10 16.1
2019-Sep-15 09:23 326 5 gusting 10 16.1
2019-Sep-15 09:18 332 6 gusting 10 16.1
2019-Sep-15 09:03 298 3 gusting 8 15.0
2019-Sep-15 08:53 318 2 gusting 6 14.4
2019-Sep-15 08:48 315 2 gusting 6 13.9
2019-Sep-15 08:43 313 4 gusting 6 13.9
2019-Sep-15 08:38 318 4 gusting 6 13.3
2019-Sep-15 08:33 310 4 gusting 6 13.3
2019-Sep-15 08:28 276 2 gusting 6 12.8
2019-Sep-15 08:23 308 4 gusting 6 12.8
2019-Sep-15 08:18 305 2 gusting 5 12.8
2019-Sep-15 08:13 297 2 gusting 4 12.8
2019-Sep-15 08:08 314 2 gusting 4 12.2
2019-Sep-15 08:03 290 1 gusting 2 12.2
2019-Sep-15 07:48 305 1 gusting 2 11.7
2019-Sep-15 07:38 330 0 gusting 2 11.1
2019-Sep-15 07:33 309 10.6
2019-Sep-15 07:23 309 10.0
2019-Sep-15 07:18 310 0 gusting 1 10.0
2019-Sep-15 07:13 336 9.4
2019-Sep-15 07:08 306 0 gusting 1 8.9
2019-Sep-15 06:48 238 8.3
2019-Sep-15 06:43 228 8.3
2019-Sep-15 06:33 255 0 gusting 0 8.3
2019-Sep-15 06:23 193 8.3
2019-Sep-15 06:18 335 8.3
2019-Sep-15 06:13 315 8.3
2019-Sep-15 05:58 315 8.3
2019-Sep-15 05:43 315 8.3
2019-Sep-15 05:23 327 8.3
2019-Sep-15 05:18 327 8.3
2019-Sep-15 05:13 327 8.3
2019-Sep-15 05:08 316 8.3
2019-Sep-15 04:58 316 8.3
2019-Sep-15 04:53 316 8.9
2019-Sep-15 04:48 316 8.9
2019-Sep-15 04:43 316 8.9
2019-Sep-15 04:38 316 8.9
2019-Sep-15 04:33 316 8.9
2019-Sep-15 04:28 316 8.9
2019-Sep-15 04:18 316 8.9
2019-Sep-15 04:13 316 8.9
2019-Sep-15 04:08 316 8.9
2019-Sep-15 04:03 316 8.9